This is the latest recevied weather packets stored in our database for station/object VA2CPJ. If no packets are shown the sender has not sent any weather packets the latest 10 day(s).
| Time | Temp. | Humidity | Pressure | Rain* | Wind** | Luminosity | Snow |
|---|---|---|---|---|---|---|---|
| 1777446024 | 11.67° C | 44% | 1022.5 hPa | - | - | 0 W/m² | - |
| 1777444231 | 12.22° C | 45% | 1022.2 hPa | - | - | 0 W/m² | - |
| 1777442454 | 12.78° C | 45% | 1022.2 hPa | - | - | 0 W/m² | - |
| 1777441247 | 12.78° C | 46% | 1022.2 hPa | - | - | 0 W/m² | - |
| 1777440625 | 13.33° C | 46% | 1022.2 hPa | - | - | 0 W/m² | - |
| 1777440048 | 13.33° C | 46% | 1023.2 hPa | - | - | 0 W/m² | - |
| 1777440039 | 13.33° C | 46% | 1023.2 hPa | - | - | 0 W/m² | - |
| 1777438823 | 13.33° C | 46% | 1023.2 hPa | - | - | 0 W/m² | - |
| 1777438239 | 13.89° C | 46% | 1023.6 hPa | - | - | 0 W/m² | - |
| 1777436434 | 14.44° C | 44% | 1023.2 hPa | - | - | 0 W/m² | - |
| 1777435235 | 14.44° C | 43% | 1022.5 hPa | - | - | 0 W/m² | - |
| 1777435227 | 14.44° C | 43% | 1023.2 hPa | - | - | 0 W/m² | - |
| 1777434072 | 15° C | 42% | 1022.5 hPa | - | - | 0 W/m² | - |
| 1777434019 | 15° C | 42% | 1023.2 hPa | - | - | 0 W/m² | - |
| 1777433444 | 15° C | 42% | 1023.2 hPa | - | - | 0 W/m² | - |
| 1777431647 | 15.56° C | 41% | 1022.2 hPa | - | - | 0 W/m² | - |
| 1777431642 | 15.56° C | 41% | 1023.2 hPa | - | - | 0 W/m² | - |
| 1777431070 | 15.56° C | 40% | 1023.2 hPa | - | - | 0 W/m² | - |
| 1777431036 | 15.56° C | 40% | 1023.2 hPa | - | - | 0 W/m² | - |
| 1777428647 | 16.11° C | 40% | 1023.6 hPa | - | - | 0 W/m² | - |
| 1777428620 | 16.11° C | 39% | 1023.6 hPa | - | - | 0 W/m² | - |
| 1777427597 | 16.67° C | 39% | 1023.6 hPa | - | - | 0 W/m² | - |
| 1777426873 | 16.67° C | 38% | 1023.6 hPa | - | - | 0 W/m² | - |
| 1777425034 | 17.22° C | 37% | 1022.5 hPa | - | - | 0 W/m² | - |
| 1777423230 | 17.78° C | 36% | 1022.5 hPa | - | - | 0 W/m² | - |
* Rain since midnight (hover to see other rain measurements)
** Current wind speed in m/s (hover to see current wind gust speed)